LYBELYTV

Guest
Details From LYBE - Belgrade
To LYTV - Tivat
Flight Number -
Tags generated
Created
Modified
Stats Distance 161 nm / 297 km
Max Altitude 18,400 ft / 5,608 m
Waypoints 3
Social Downloads 3
Likes 0
Share VATSIM

Download

Looking for another format? Having issues loading an existing format? Contact us
Advertisement - Login to hide

Notes

Basic altitude profile: - Ascent Rate: 1800ft/min - Ascent Speed: 250kts - Cruise Altitude: 16000ft - Cruise Speed: 420kts - Descent Rate: 1500ft/min - Descent Speed: 250kts Options: - Use NATs: yes - Use PACOTS: yes - Use low airways: yes - Use high airways: yes

Route

LYBE PESAK LYTV

ID Type Via Altitude (ft/m) Position (lat/lon) Dist (leg/tot) Name
O LYBE APT - 0 / 0 44.81843 / 20.30921 - / 0 nm Belgrade
PESAK FIX - 18,400 / 5,608 43.71861 / 19.50417 74 / 74 nm
O LYTV APT - 0 / 0 42.40466 / 18.72329 86 / 160 nm Tivat

Altitude Profile

Advertisement - Login to hide

LYBE

Details ICAO LYBE (BEG)
Name Belgrade
Region Serbia and Montenegro
Timezone Europe/Belgrade (UTC+2.0)
Stats Elevation 334 ft / 102 m (AMSL)
Location 44.818500° 20.309200°
Runways 1
Magnetic Variation 4.765° E

METAR

LYBE 211600Z 33007KT 9999 BKN027 11/06 Q1023 NOSIG

Decode

TAF

TAF LYBE 211100Z 2112/2212 33012KT 9999 SCT040 TX14/2212Z TN07/2205Z BECMG 2117/2119 26006KT BECMG 2202/2204 3000 BR BECMG 2207/2209 7000 NSW

Decode

Departure Runways

ID Width Length Bearing (true/mag) Surface Threshold Overrun Markings Lighting
12 148 ft / 45 m 11,149 ft / 3,398 m 122.00° / 117.24° ASPHALT 0 ft / 0 m 0 ft / 0 m PREC-APP CENTERLINE EDGE THRESHOLD ALSF-II REIL-OMNI
30 148 ft / 45 m 11,149 ft / 3,398 m 302.03° / 297.26° ASPHALT 1,299 ft / 396 m 194 ft / 59 m PREC-APP CENTERLINE EDGE THRESHOLD ALSF-I REIL-OMNI

LYTV

Details ICAO LYTV (TIV)
Name Tivat
Region Serbia and Montenegro
Timezone Europe/Podgorica (UTC+2.0)
Stats Elevation 20 ft / 6 m (AMSL)
Location 42.404700° 18.723300°
Runways 1
Magnetic Variation 4.252° E

METAR

LYTV 211600Z 02010G24KT 9999 FEW060 SCT080 18/05 Q1016 NOSIG

Decode

TAF

TAF LYTV 211100Z 2112/2212 02012KT 9999 FEW050 BKN083 TX23/2113Z TN14/2204Z TEMPO 2114/2206 02015G25KT

Decode

Destination Runways

ID Width Length Bearing (true/mag) Surface Threshold Overrun Markings Lighting
14 148 ft / 45 m 8,210 ft / 2,503 m 138.97° / 134.72° ASPHALT 0 ft / 0 m 0 ft / 0 m APP CENTERLINE EDGE THRESHOLD MALSF
32 148 ft / 45 m 8,210 ft / 2,503 m 318.99° / 314.74° ASPHALT 0 ft / 0 m 0 ft / 0 m APP CENTERLINE EDGE THRESHOLD MALSF

Approach Navaids

Runway Type Ident Frequency Range Bearing (true/mag) Slope Elevation
32 DME TIV 111.30 MHz 18 nm / 33 km - - 49 ft / 15 m (AMSL)
32 LOC-LOC TIV 111.30 MHz 50 nm / 93 km 339.00° / 334.75 ° - 56 ft / 17 m (AMSL)

Popular Alternatives